{"data":{"norad_id":63575,"epoch":"2026-09-20T10:37:49.062144Z","epoch_age_seconds":157453,"freshness":"FRESH","line1":"1 63575U 25076G   26263.44292896  .00008794  00000+0  32866-3 0  9994","line2":"2 63575  43.0027 301.9899 0001581 276.6826  83.3846 15.27583668 81614","mean_motion":15.27583668,"eccentricity":0.0001581,"inclination_deg":43.0027,"raan_deg":301.9899,"arg_perigee_deg":276.6826,"mean_anomaly_deg":83.3846,"bstar":0.00032866,"rev_number":8161,"period_min":94.266522362427,"perigee_km":481.95336096475,"apogee_km":484.1228645354,"semimajor_km":6861.1751127501,"source":"CELESTRAK","updated_at":"2026-09-21T09:00:35.045662Z"}}